Regional Weather Roundup
Issued by NWS

Home | Current Version | Previous Version | Graphics & Text | Print | Product List | Glossary On
Versions: 1 2 3 4 5 6 7 8 9 10 11 12 13 14 15 16 17 18 19 20 21 22 23 24 25 26 27 28 29 30 31 32 33 34 35 36 37 38 39 40 41 42 43 44 45 46 47 48 49 50
000
ASUS43 KBIS 231459
RWRND

NORTH DAKOTA REGIONAL WEATHER ROUNDUP
NATIONAL WEATHER SERVICE BISMARCK ND
1000 AM CDT SAT AUG 23 2014

NOTE: "FAIR" INDICATES FEW OR NO CLOUDS BELOW 12,000 FEET WITH NO
SIGNIFICANT WEATHER AND/OR OBSTRUCTIONS TO VISIBILITY.


NDZ001>003-009>011-017-231600-
NORTHWEST NORTH DAKOTA

CITY           SKY/WX    TMP DP  RH WIND       PRES   REMARKS
WILLISTON      LGT RAIN  56  53  90 NE13      30.07S
MINOT          CLOUDY    57  52  83 NE14      30.08S
$$

NDZ018>021-031>035-040>046-231600-
SOUTHWEST NORTH DAKOTA

CITY           SKY/WX    TMP DP  RH WIND       PRES   REMARKS
BISMARCK       LGT RAIN  60  59  96 NE15      30.00F
GARRISON         N/A     57  55  93 NE9       30.05R
HETTINGER ARPT RAIN      59  57  93 E21G26    29.95S FOG
$$

NDZ004>008-012>016-024-026-027-054-231600-
NORTHEAST NORTH DAKOTA

CITY           SKY/WX    TMP DP  RH WIND       PRES   REMARKS
GRAND FORKS    FOG       60  60 100 N13       30.04F VSB 1/4
GRND FRKS AFB  FOG       59  59 100 NE10      30.05F VSB 1
DEVILS LAKE    CLOUDY    57  52  82 NE12      30.04F
$$

NDZ022-023-025-028>030-036>039-047>053-231600-
SOUTHEAST NORTH DAKOTA

CITY           SKY/WX    TMP DP  RH WIND       PRES   REMARKS
FARGO          CLOUDY    71  68  90 NE7       29.98F
JAMESTOWN      CLOUDY    61  60  97 NE13      30.00F FOG
$$



USA.gov is the U.S. government's official web portal to all federal, state and local government web resources and services.